Probability
0 0 0 0 0 0 0 0 0 0 0 0 0 0 0 0 1 1 1 0 1 2 2 2 2 1 1 1 0 1 2 3 3 4 3 1 0 0 0 0 1 2 4 5
0 0 0 0 0 0 0 0 0 0 0 0 0 0 0 0 0 0 0 0 0 1 1 1 1 0 0 0 0 0 1 2 3 4 3 2 0 0 0 0 0 1 3 4
0 0 0 0 0 0 0 0 0 0 0 0 0 0 0 0 0 0 0 0 0 0 0 0 0 0 0 0 0 0 0 1 2 3 3 2 1 0 0 0 0 0 1 2
0 0 0 0 0 0 0 0 0 0 0 0 0 0 0 0 0 0 0 0 0 0 0 0 0 0 0 0 0 1 0 0 1 1 2 2 1 1 0 0 0 0 0 1
0 0 0 0 0 0 0 0 0 0 0 0 0 0 0 0 0 0 0 0 0 0 0 0 0 0 0 0 0 0 0 0 0 0 1 2 2 2 1 1 0 0 0 0
0 0 0 0 0 0 0 0 0 0 0 0 0 0 0 0 0 0 0 0 0 0 0 0 0 0 0 0 0 0 0 0 0 0 0 1 3 3 3 2 1 0 0 0
0 0 0 0 0 0 0 0 0 0 0 0 0 0 0 0 0 0 0 0 0 0 0 0 0 0 0 0 0 0 0 0 0 0 0 1 2 3 3 3 2 1 1 1
0 0 0 0 0 0 0 0 0 0 0 0 0 0 0 0 0 0 0 0 0 0 0 0 0 0 0 0 0 0 0 0 0 0 0 0 2 3 3 3 3 3 2 2
0 0 0 0 0 0 0 0 0 0 0 0 0 0 0 0 0 0 0 0 0 0 0 0 0 0 0 0 0 0 0 0 0 0 0 1 2 3 3 3 3 3 3 2
0 0 0 0 0 0 0 0 0 0 0 0 0 0 0 0 0 0 0 0 0 0 0 0 0 0 0 0 0 0 0 0 0 0 0 1 2 3 3 3 3 3 3 2
0 0 0 0 0 0 0 0 0 0 0 0 0 0 0 0 0 0 0 0 0 0 0 0 0 0 0 0 0 0 0 0 0 0 0 0 1 2 3 3 3 3 3 3
0 0 0 0 0 0 0 0 0 0 0 0 0 0 0 0 0 0 0 0 0 0 0 0 0 0 0 0 0 0 0 0 0 0 0 0 0 1 1 2 1 1 2 2
0 0 0 0 0 0 0 0 0 0 0 0 0 0 0 0 0 0 0 0 0 0 0 0 0 0 0 0 0 0 0 0 0 0 0 0 0 0 0 0 0 0 1 1
0 0 0 0 0 0 0 0 0 0 0 0 0 0 0 0 0 0 0 0 0 0 0 0 0 0 0 0 0 0 0 0 0 0 0 0 0 0 0 0 0 0 0 0
0 0 0 0 0 0 0 0 0 0 0 0 0 0 0 0 0 0 0 0 0 0 0 0 0 0 0 0 0 0 0 0 0 0 0 0 0 0 0 0 0 0 0 0
0 0 0 0 0 0 0 0 0 0 0 0 0 0 0 0 0 0 0 0 0 0 0 0 0 0 0 0 0 0 0 0 0 0 0 0 0 0 0 0 0 0 0 0
0 0 0 0 0 0 0 0 0 0 0 0 0 0 0 0 0 0 0 0 0 0 0 0 0 0 0 0 0 0 0 0 0 0 0 0 0 0 0 0 0 0 0 0
0 0 0 0 0 0 0 0 0 0 0 0 0 0 0 0 0 0 0 0 0 0 0 0 0 0 0 0 0 0 0 0 0 0 0 0 0 0 0 0 0 0 0 0
0 0 0 0 0 0 0 0 0 0 0 0 0 0 0 0 0 0 0 0 0 0 0 0 0 0 0 0 0 0 0 0 0 0 0 0 0 0 0 0 0 0 0 0
0 0 0 0 0 0 0 0 0 0 0 0 0 0 0 0 0 0 0 0 0 0 0 0 0 0 0 0 0 0 0 0 0 0 0 0 0 0 0 0 0 0 0 0
0 0 0 0 0 0 0 0 0 0 0 0 0 0 0 0 0 0 0 0 0 0 0 0 0 0 0 0 0 0 0 0 0 0 0 0 0 0 0 0 0 0 0 0
0 0 0 0 0 0 0 0 0 0 0 0 0 0 0 0 0 0 0 0 0 0 0 0 0 0 0 0 0 0 0 0 0 0 0 0 0 0 0 0 0 0 0 0
0 0 0 0 0 0 0 0 0 0 0 0 0 0 0 0 0 0 0 0 0 0 0 0 0 0 0 0 0 0 0 0 0 0 0 0 0 0 0 0 0 0 0 0
0 0 0 0 0 0 0 0 0 0 0 0 0 0 0 0 0 0 0 0 0 0 0 0 0 0 0 0 0 0 0 0 0 0 0 0 0 0 0 0 0 0 0 0
0 0 0 0 0 0 0 0 0 0 0 0 0 0 0 0 0 0 0 0 0 0 0 0 0 0 0 0 0 0 0 0 0 0 0 0 0 0 0 0 0 0 0 0
0 0 0 0 0 0 0 0 0 0 0 0 0 0 0 0 0 0 0 0 0 0 0 0 0 0 0 0 0 0 0 0 0 0 0 0 0 0 0 0 0 0 0 0
0 0 0 0 0 0 0 0 0 0 0 0 0 0 0 0 0 0 0 0 0 0 0 0 0 0 0 0 0 0 0 0 0 0 0 0 0 0 0 0 0 0 0 0
Wind_Speed
9 9 8 9 9 9 9 9 8 7 5 2 1 1 1 1 2 2 1 1 1 1 2 2 2 3 3 3 3 3 3 3 2 1 2 1 1 0 1 0 0 0 1 1
10 9 10 11 10 10 10 9 8 7 5 3 3 2 3 2 1 0 0 0 1 1 1 1 1 2 2 3 3 3 3 3 3 2 1 1 1 0 0 0 0 0 0 1
8 7 9 10 7 6 6 5 5 6 4 3 3 3 2 1 0 0 0 0 0 1 1 1 1 1 1 1 2 3 3 3 2 2 2 1 1 1 0 0 0 0 0 0
6 6 8 3 1 3 5 4 3 4 4 4 4 4 3 1 1 0 0 0 1 1 1 1 1 2 1 1 1 2 3 3 2 2 2 1 1 1 1 0 0 0 1 1
5 7 8 4 1 2 4 4 2 2 4 5 5 4 2 4 2 1 0 0 1 1 0 1 1 2 2 1 1 2 2 3 3 2 2 2 1 1 1 0 0 1 1 1
5 6 6 1 2 3 3 3 3 2 3 3 4 3 3 3 3 2 1 1 1 0 1 1 1 2 2 2 1 1 2 2 2 2 2 2 1 1 0 0 1 1 1 1
6 7 4 2 3 3 3 2 3 3 3 3 3 3 3 2 2 2 1 1 1 0 0 0 1 2 1 2 2 2 2 2 1 1 2 1 1 1 0 0 0 1 1 1
5 6 3 2 2 2 4 4 4 3 3 3 4 4 3 2 1 1 1 1 1 0 0 0 1 1 1 1 1 2 2 2 2 2 1 2 2 1 0 0 1 1 0 1
3 2 2 3 3 4 5 6 5 5 4 4 4 4 4 3 2 1 1 1 1 1 1 1 1 2 1 0 2 2 2 2 1 2 1 1 2 2 1 1 1 1 0 1
4 2 3 3 4 5 4 5 6 6 5 4 3 3 3 3 2 2 1 2 1 1 1 1 1 1 1 1 1 2 2 2 1 2 2 1 1 1 1 1 1 1 1 1
5 4 3 3 4 5 5 5 7 6 5 5 4 4 3 3 2 2 2 2 1 2 2 2 1 2 2 2 2 2 2 2 1 1 1 1 1 1 1 2 2 2 1 1
4 4 4 5 5 6 6 6 6 6 6 5 4 4 3 2 2 2 2 2 1 1 1 2 1 2 2 2 2 2 2 2 1 1 1 1 1 1 1 2 3 3 3 2
6 6 5 5 5 5 5 6 6 5 5 5 4 4 3 3 2 2 2 2 2 2 2 1 1 2 2 2 2 2 2 2 1 2 2 2 2 2 1 1 2 4 4 4
5 5 5 5 5 5 5 5 5 5 4 4 4 4 4 3 2 2 2 2 1 1 1 1 1 1 1 1 2 2 2 2 2 1 2 2 2 1 1 2 2 2 4 6
6 6 5 5 5 5 5 5 5 5 5 4 4 4 4 3 2 2 1 1 1 1 1 2 2 2 2 2 2 3 2 1 1 1 1 1 1 1 1 2 1 1 1 2
6 6 5 5 5 5 5 5 5 6 5 4 4 4 4 3 2 1 1 1 1 2 2 2 2 2 2 2 2 2 1 2 1 1 1 1 1 1 1 1 1 1 1 1
5 5 5 4 5 5 5 5 5 5 5 5 4 4 4 3 2 2 2 1 1 1 1 1 1 1 1 2 1 1 1 2 3 2 1 1 1 1 0 0 1 1 1 1
5 5 5 4 5 5 4 4 5 5 5 5 4 3 3 3 2 2 2 1 0 0 0 1 1 0 1 1 1 1 1 1 1 1 1 1 1 0 0 0 1 1 1 1
5 5 5 5 5 5 5 4 4 4 5 4 4 4 3 3 2 2 1 1 1 1 1 1 1 1 2 1 1 1 1 1 1 1 1 1 1 0 0 1 1 1 1 0
5 5 5 5 5 5 5 5 4 4 4 3 3 4 3 3 2 1 1 1 1 1 1 1 2 1 2 2 1 1 1 1 1 1 1 1 1 0 0 0 0 1 1 1
5 5 5 5 5 5 5 4 4 4 3 3 3 3 3 3 1 1 1 1 1 1 2 2 1 1 1 1 2 1 1 1 1 1 1 1 1 1 0 0 0 0 1 1
5 5 5 5 5 4 4 4 4 4 3 3 3 3 3 2 1 1 1 1 0 2 1 1 1 1 1 1 1 1 1 1 1 1 1 1 1 1 0 0 0 0 0 1
5 5 5 5 5 5 4 3 3 3 3 3 3 2 2 1 1 1 1 0 1 1 1 1 1 2 1 1 1 1 1 1 1 1 1 1 1 1 0 0 0 0 1 1
5 5 5 5 4 4 4 3 3 3 2 3 2 2 1 1 1 1 1 1 1 1 1 2 2 2 2 1 1 1 1 1 1 1 1 1 1 1 0 0 0 1 1 1
5 5 4 4 4 3 3 3 3 3 3 2 2 2 1 1 0 1 1 1 2 2 1 1 2 2 1 1 1 0 1 1 1 1 1 1 1 1 1 0 0 1 1 1
5 4 4 3 3 3 2 2 2 2 2 2 1 1 1 1 1 1 1 1 2 2 1 1 1 1 1 1 1 1 1 1 1 1 1 1 1 1 1 0 0 1 1 1
4 4 3 3 3 2 2 2 1 2 1 1 1 1 1 1 1 1 1 1 1 1 1 1 1 1 1 1 1 1 1 1 1 1 1 1 1 1 1 1 0 0 0 1
Wind_Direction
273 281 273 261 256 255 256 264 270 282 293 319 25 21 16 51 78 70 65 68 103 153 175 184 187 192 171 158 158 162 166 161 146 131 118 94 66 20 75 96 243 168 168 140
270 266 270 266 253 248 252 261 272 286 298 4 4 13 4 27 81 108 286 357 136 185 173 200 198 185 164 166 167 167 160 146 138 133 127 122 112 71 330 210 230 51 312 135
271 269 269 256 250 244 258 268 275 283 307 349 348 354 329 324 249 230 281 308 266 258 230 238 221 161 126 151 153 152 140 132 134 136 142 142 127 100 277 287 14 28 275 203
268 273 254 246 291 283 267 274 292 310 345 359 344 329 319 347 90 288 359 323 265 257 253 235 135 115 114 120 149 145 141 147 152 155 154 156 153 162 202 196 76 284 282 303
256 264 262 265 294 311 280 275 325 330 342 347 346 332 332 30 17 285 164 358 306 305 325 75 92 119 126 117 138 151 142 144 152 160 162 170 180 186 147 27 294 266 249 261
250 259 266 290 21 351 297 261 27 1 338 337 336 314 322 356 354 356 47 34 323 342 70 97 105 121 132 148 148 149 136 136 145 159 169 172 159 149 138 174 242 263 267 249
249 257 262 8 9 326 268 311 359 345 343 333 308 302 317 337 344 351 29 21 349 30 102 160 137 136 170 180 180 149 125 124 130 143 158 154 131 123 135 182 266 275 267 280
238 248 249 33 8 337 340 354 351 348 343 324 318 334 346 351 352 5 355 351 354 77 189 119 111 129 209 218 150 122 125 133 147 133 156 155 135 143 151 245 256 258 280 323
247 255 351 14 351 352 352 342 346 341 338 333 326 327 332 333 332 335 327 311 303 250 217 171 163 180 202 165 114 122 135 145 156 141 121 142 155 162 172 209 226 243 260 265
271 287 327 352 349 354 353 340 335 336 335 327 322 322 320 316 315 302 291 284 269 223 203 235 209 155 125 121 128 148 163 167 163 139 126 115 153 160 170 187 204 244 250 252
271 298 315 350 354 351 342 334 328 329 329 334 327 315 307 302 302 297 287 281 256 227 219 225 207 154 148 151 165 182 183 176 162 140 143 170 163 189 186 191 184 198 229 230
290 316 317 327 336 339 332 329 329 330 330 327 319 306 301 293 292 286 276 265 245 239 233 226 203 167 162 166 177 184 189 184 167 157 173 187 181 217 234 206 187 185 191 210
302 319 318 317 327 336 328 330 332 326 320 318 320 317 309 306 291 276 272 268 245 221 213 217 187 178 174 179 191 199 204 190 175 179 186 197 192 191 230 260 218 211 214 222
314 315 306 314 320 325 325 325 324 323 318 319 322 319 312 307 300 285 275 272 255 200 189 182 182 195 193 192 199 211 206 184 182 185 188 190 194 206 211 216 230 241 229 226
306 308 305 313 315 319 326 328 326 324 328 332 333 332 330 321 306 290 285 282 236 189 203 199 196 208 205 199 202 206 189 173 172 174 171 171 186 217 223 230 228 225 234 223
299 298 300 304 310 317 321 322 319 318 324 328 330 329 321 314 308 307 299 236 208 213 215 211 211 214 194 188 200 192 168 157 159 172 177 180 196 213 227 233 227 232 235 225
291 292 295 300 307 312 320 326 321 319 321 322 319 316 316 317 313 308 295 278 247 235 207 183 189 203 178 171 174 166 156 169 182 185 176 179 211 224 226 263 273 268 267 239
308 305 304 301 303 308 314 315 312 315 316 312 316 315 311 305 300 296 302 311 335 321 213 133 129 170 141 133 142 145 145 155 173 181 170 175 206 210 183 268 276 279 290 283
311 313 314 311 312 312 309 306 308 309 311 314 314 308 303 299 298 296 301 269 200 223 229 128 140 168 147 130 129 150 164 174 183 179 153 146 160 173 185 247 269 281 291 321
302 304 305 302 300 299 300 303 301 296 301 310 309 308 307 306 309 290 275 262 228 205 159 151 173 173 154 141 116 145 154 161 171 165 148 152 167 209 259 278 300 315 331 353
298 299 298 298 296 296 297 298 296 294 299 305 300 297 297 299 290 260 247 273 306 94 130 154 156 142 140 129 141 157 158 156 167 178 180 181 173 178 250 303 330 339 342 349
302 302 302 301 301 300 302 303 302 303 304 305 302 301 301 292 289 279 268 257 156 112 127 157 147 118 112 115 144 151 148 150 173 175 179 175 167 181 206 266 292 299 313 329
300 300 301 301 299 298 298 302 304 304 303 304 304 300 291 279 252 233 261 313 120 110 112 131 118 126 128 119 146 161 163 170 181 176 178 173 159 161 183 267 305 330 350 356
305 302 304 308 310 311 311 317 317 312 310 303 301 304 297 281 300 347 34 65 75 94 104 132 133 142 135 132 164 167 155 164 176 163 149 136 128 126 108 27 16 9 7 354
317 316 314 316 315 315 319 327 330 330 330 331 345 350 349 2 47 46 76 108 89 82 91 127 130 130 130 135 141 124 100 88 77 76 83 92 105 103 90 61 5 354 343 335
320 317 317 316 314 319 322 324 323 322 327 330 338 358 14 26 50 63 93 109 105 86 86 108 122 117 88 90 83 73 71 68 67 77 92 91 92 88 95 83 3 340 328 338
312 312 316 322 325 326 321 324 326 322 321 318 317 348 12 24 49 54 65 94 120 113 103 106 110 96 73 82 85 82 77 72 79 74 74 79 86 90 83 64 5 316 321 318